Precipitable_Water
0.40 0.40 0.46 0.56 0.65 0.67 0.70 0.65 0.69 0.71 0.83 0.81 0.79 0.80 0.91 1.03 1.04 0.96 0.95 0.90 0.83 0.91 1.06 1.17 1.24 1.30 1.33 1.39 1.41 1.45 1.44 1.46 1.48 1.41 1.40 1.45 1.55 1.75 1.86 2.08 2.17 2.17 2.16 2.02
0.33 0.30 0.51 0.58 0.65 0.63 0.64 0.61 0.62 0.69 0.82 0.81 0.77 0.77 0.93 1.01 1.02 1.04 0.97 0.97 0.86 0.87 0.99 1.07 1.15 1.20 1.24 1.30 1.39 1.41 1.45 1.47 1.48 1.43 1.45 1.47 1.55 1.64 1.83 2.09 2.12 2.14 2.08 2.03
0.27 0.34 0.49 0.51 0.57 0.55 0.56 0.54 0.58 0.60 0.76 0.83 0.75 0.68 0.77 0.92 1.02 1.09 1.11 1.07 0.97 0.87 0.86 0.94 1.02 1.10 1.19 1.24 1.31 1.36 1.42 1.48 1.50 1.49 1.46 1.45 1.53 1.66 1.77 1.99 2.06 2.18 2.11 1.97
0.26 0.33 0.39 0.45 0.49 0.53 0.47 0.56 0.59 0.61 0.60 0.50 0.71 0.42 0.58 0.74 0.82 0.92 1.00 1.04 1.00 0.93 0.92 0.93 0.98 1.06 1.14 1.22 1.33 1.38 1.41 1.46 1.54 1.56 1.48 1.40 1.36 1.42 1.67 1.85 2.00 2.14 2.13 2.11
0.18 0.23 0.29 0.36 0.45 0.55 0.51 0.55 0.49 0.51 0.52 0.52 0.60 0.49 0.49 0.65 0.63 0.73 0.89 0.99 1.03 1.01 0.96 0.90 0.94 1.04 1.13 1.22 1.24 1.33 1.40 1.44 1.51 1.55 1.54 1.49 1.44 1.59 1.71 1.71 1.80 1.94 2.08 2.16
0.15 0.18 0.18 0.28 0.38 0.52 0.56 0.46 0.43 0.43 0.43 0.34 0.52 0.50 0.43 0.47 0.51 0.58 0.74 0.89 1.00 1.05 1.01 0.96 1.01 1.05 1.08 1.18 1.22 1.34 1.41 1.44 1.52 1.54 1.55 1.49 1.51 1.49 1.54 1.66 1.74 1.86 1.93 2.05
0.14 0.15 0.18 0.19 0.27 0.44 0.49 0.41 0.27 0.23 0.27 0.32 0.53 0.48 0.42 0.49 0.55 0.56 0.60 0.76 0.94 1.05 1.03 0.94 0.89 0.98 1.07 1.16 1.26 1.33 1.37 1.39 1.51 1.50 1.51 1.50 1.58 1.53 1.48 1.53 1.69 1.79 1.85 1.88
0.11 0.09 0.15 0.18 0.21 0.31 0.42 0.41 0.31 0.20 0.21 0.27 0.44 0.32 0.38 0.47 0.53 0.55 0.58 0.68 0.86 0.98 1.01 0.91 0.86 0.98 1.09 1.18 1.26 1.34 1.36 1.36 1.48 1.49 1.49 1.58 1.65 1.64 1.58 1.61 1.62 1.75 1.79 1.85
0.13 0.11 0.15 0.16 0.19 0.28 0.36 0.37 0.44 0.31 0.26 0.26 0.29 0.33 0.39 0.41 0.43 0.48 0.52 0.64 0.76 0.88 0.92 0.86 0.89 0.97 1.09 1.19 1.28 1.30 1.42 1.42 1.46 1.50 1.52 1.55 1.62 1.62 1.59 1.69 1.75 1.74 1.86 1.91
0.22 0.16 0.16 0.14 0.18 0.21 0.30 0.42 0.33 0.31 0.21 0.18 0.19 0.20 0.23 0.29 0.30 0.36 0.43 0.61 0.75 0.86 0.85 0.86 0.89 0.94 1.06 1.19 1.32 1.40 1.43 1.44 1.50 1.53 1.54 1.59 1.65 1.72 1.72 1.70 1.77 1.74 1.73 1.81
0.26 0.21 0.15 0.15 0.14 0.16 0.18 0.28 0.31 0.30 0.26 0.18 0.14 0.15 0.21 0.19 0.27 0.30 0.39 0.61 0.73 0.79 0.83 0.90 0.90 0.97 1.06 1.18 1.33 1.35 1.49 1.54 1.53 1.47 1.46 1.56 1.64 1.76 1.81 1.73 1.70 1.82 1.74 1.70
0.30 0.23 0.16 0.14 0.17 0.20 0.20 0.20 0.25 0.22 0.20 0.19 0.16 0.14 0.19 0.19 0.26 0.28 0.32 0.57 0.75 0.79 0.90 0.91 0.95 0.99 1.05 1.10 1.28 1.39 1.54 1.71 1.75 1.69 1.51 1.47 1.59 1.72 1.80 1.73 1.67 1.76 1.77 1.79
0.34 0.27 0.17 0.12 0.15 0.18 0.19 0.20 0.21 0.22 0.22 0.18 0.15 0.15 0.19 0.17 0.22 0.27 0.34 0.58 0.73 0.78 0.86 0.87 1.03 1.00 1.03 1.12 1.25 1.40 1.58 1.59 1.53 1.70 1.53 1.45 1.51 1.64 1.69 1.75 1.74 1.79 1.82 1.83
0.36 0.30 0.22 0.13 0.12 0.16 0.17 0.20 0.21 0.21 0.20 0.18 0.17 0.16 0.16 0.17 0.23 0.26 0.38 0.61 0.74 0.79 0.82 0.90 0.99 1.08 1.19 1.25 1.31 1.41 1.58 1.65 1.47 1.47 1.39 1.38 1.47 1.59 1.70 1.81 1.81 1.79 1.82 1.82
0.35 0.29 0.28 0.24 0.22 0.19 0.21 0.22 0.21 0.20 0.21 0.17 0.19 0.17 0.20 0.21 0.25 0.27 0.38 0.54 0.72 0.72 0.80 0.86 0.95 1.01 1.11 1.24 1.35 1.39 1.55 1.51 1.36 1.18 1.26 1.35 1.42 1.56 1.71 1.80 1.86 1.92 1.84 1.89
0.36 0.29 0.30 0.26 0.27 0.26 0.25 0.25 0.24 0.22 0.22 0.22 0.22 0.22 0.28 0.26 0.27 0.28 0.39 0.51 0.63 0.67 0.76 0.89 0.97 1.12 1.08 1.13 1.27 1.30 1.39 1.31 1.15 1.14 1.24 1.34 1.38 1.52 1.68 1.73 1.78 1.81 1.76 1.83
0.48 0.35 0.30 0.26 0.30 0.29 0.24 0.26 0.26 0.24 0.26 0.26 0.22 0.27 0.28 0.23 0.25 0.31 0.44 0.52 0.58 0.62 0.68 0.87 0.97 1.07 1.14 1.09 1.23 1.22 1.22 1.05 1.03 1.03 1.20 1.32 1.46 1.62 1.68 1.76 1.77 1.74 1.62 1.65
0.56 0.47 0.40 0.32 0.34 0.25 0.32 0.31 0.29 0.26 0.29 0.31 0.29 0.34 0.35 0.30 0.37 0.39 0.55 0.60 0.60 0.61 0.70 0.83 0.94 1.04 1.15 1.25 1.25 1.26 1.16 1.07 1.15 1.17 1.30 1.47 1.57 1.57 1.60 1.74 1.71 1.72 1.70 1.60
0.62 0.58 0.45 0.37 0.34 0.37 0.39 0.36 0.36 0.34 0.28 0.37 0.36 0.47 0.49 0.49 0.48 0.42 0.64 0.67 0.67 0.70 0.76 0.87 0.95 1.03 1.19 1.24 1.26 1.20 1.12 1.25 1.28 1.24 1.32 1.53 1.59 1.47 1.47 1.45 1.46 1.46 1.43 1.50
0.59 0.59 0.51 0.44 0.34 0.28 0.40 0.48 0.54 0.52 0.28 0.41 0.46 0.47 0.53 0.55 0.30 0.31 0.56 0.63 0.61 0.72 0.83 0.87 0.93 1.03 1.15 1.24 1.30 1.28 1.22 1.27 1.18 1.27 1.40 1.53 1.47 1.43 1.38 1.42 1.38 1.45 1.46 1.24
0.39 0.49 0.45 0.43 0.39 0.40 0.49 0.60 0.61 0.34 0.33 0.51 0.58 0.58 0.62 0.53 0.53 0.65 0.81 0.72 0.75 0.75 0.79 0.96 0.99 0.98 1.12 1.27 1.33 1.31 1.32 1.25 1.26 1.42 1.57 1.54 1.42 1.45 1.42 1.40 1.37 1.34 1.32 1.37
0.39 0.40 0.43 0.46 0.40 0.35 0.63 0.66 0.50 0.59 0.68 0.63 0.70 0.70 0.66 0.71 0.73 0.90 0.94 0.94 1.02 1.03 1.01 1.08 1.10 1.15 1.33 1.38 1.43 1.39 1.40 1.56 1.56 1.59 1.51 1.47 1.46 1.42 1.41 1.39 1.44 1.41 1.35 1.29
0.40 0.47 0.48 0.52 0.52 0.69 0.74 0.74 0.80 0.82 0.77 0.74 0.82 0.84 0.78 0.72 0.78 0.93 1.07 1.18 1.23 1.27 1.31 1.32 1.32 1.41 1.45 1.47 1.51 1.53 1.68 1.81 1.78 1.69 1.57 1.43 1.50 1.55 1.59 1.55 1.53 1.41 1.42 1.40
0.59 0.65 0.49 0.52 0.64 0.71 0.78 0.86 0.86 0.84 0.83 0.84 0.95 0.89 0.87 0.77 0.90 1.02 1.15 1.26 1.33 1.40 1.44 1.57 1.50 1.45 1.49 1.59 1.65 1.76 2.01 1.99 1.88 1.80 1.60 1.41 1.49 1.57 1.65 1.65 1.55 1.49 1.47 1.46
0.58 0.64 0.56 0.53 0.66 0.76 0.80 0.87 0.86 0.85 0.87 0.89 0.96 1.02 0.90 0.86 0.92 1.01 1.09 1.21 1.34 1.36 1.40 1.47 1.49 1.48 1.49 1.52 1.36 1.31 1.95 2.18 1.97 1.93 1.51 1.42 1.53 1.61 1.55 1.42 1.43 1.56 1.60 1.63
0.66 0.56 0.49 0.48 0.63 0.70 0.71 0.77 0.86 0.86 0.83 0.86 0.89 0.95 1.08 0.98 0.98 1.11 1.18 1.27 1.31 1.31 1.35 1.35 1.34 1.36 1.38 1.43 1.37 1.46 1.94 1.95 1.93 1.82 1.56 1.50 1.54 1.59 1.47 1.42 1.41 1.61 1.65 1.65
Wind_Speed
11 12 12 10 5 4 5 4 3 3 5 6 6 5 6 6 6 7 7 7 9 11 12 12 11 11 10 10 9 9 8 8 7 7 8 8 8 6 4 5 3 3 3 2
13 16 14 9 9 7 5 4 4 3 4 5 4 6 6 8 9 9 9 9 9 10 11 12 12 12 11 11 11 10 9 8 7 6 7 8 8 7 6 5 4 3 3 2
18 13 15 14 11 10 7 6 4 4 4 3 4 6 6 8 9 10 10 10 10 10 11 12 12 12 11 12 12 12 11 9 8 7 6 8 7 7 6 6 5 4 3 3
19 17 15 16 15 12 11 6 6 5 5 3 3 4 5 6 9 10 13 13 12 11 11 11 11 11 11 11 12 12 12 11 9 9 8 8 8 7 6 5 6 5 3 3
19 18 20 17 17 16 12 7 6 6 5 6 5 5 4 3 5 8 13 15 15 13 13 12 12 11 10 10 11 12 12 12 11 10 9 9 9 8 6 6 6 6 5 3
19 17 19 21 16 16 14 9 6 6 6 8 6 7 6 3 2 4 9 14 16 16 14 13 13 11 10 10 11 11 12 11 11 10 10 10 9 9 8 7 6 6 6 5
16 19 17 18 18 16 16 13 10 8 8 7 5 7 10 8 5 7 6 10 16 17 15 13 13 12 11 12 12 11 11 11 11 11 10 10 9 9 9 8 8 7 6 6
16 17 21 18 22 19 20 17 14 12 9 8 8 9 9 7 9 10 10 9 13 17 17 15 14 13 12 13 12 11 11 12 11 11 11 10 10 9 9 8 7 8 7 7
10 14 14 21 19 21 19 19 14 12 10 11 10 11 14 9 8 8 8 5 10 15 17 16 15 14 13 12 12 12 11 11 12 11 11 11 10 9 10 10 9 9 8 8
8 8 12 15 18 17 22 19 16 14 13 13 12 12 14 14 14 10 8 6 9 13 16 16 15 15 14 12 12 11 12 12 12 12 11 11 11 10 10 11 11 10 10 9
11 10 8 13 20 18 17 19 15 14 14 15 16 14 15 19 17 14 10 8 10 13 15 15 15 16 15 14 13 12 11 11 13 13 12 11 10 11 12 13 13 11 10 9
11 8 13 14 13 15 15 16 19 18 16 15 15 16 13 15 14 12 12 10 12 12 14 16 15 15 16 15 14 12 11 12 12 15 14 12 10 10 11 11 12 12 12 10
11 10 8 11 14 15 17 16 15 14 14 18 18 15 12 13 16 15 12 12 14 12 14 16 15 15 16 15 14 13 11 8 14 16 15 12 10 9 10 11 12 13 12 11
10 8 11 10 15 14 16 16 17 18 15 17 19 19 17 18 16 15 10 12 15 14 14 16 15 16 16 14 13 13 14 12 9 17 15 11 10 9 8 8 10 11 12 11
12 11 9 9 7 11 12 15 18 19 17 16 16 15 17 19 18 16 11 12 17 14 15 15 16 15 16 15 13 12 13 11 11 16 14 12 10 9 9 9 9 9 10 10
10 9 11 8 9 10 11 13 14 15 13 17 16 16 16 18 18 17 14 15 18 17 15 15 16 14 14 16 13 12 11 10 13 15 14 12 10 9 9 9 9 9 9 9
11 11 11 10 9 9 12 18 17 15 15 14 12 13 9 11 16 16 15 18 18 17 15 16 17 17 14 15 15 10 10 11 13 14 13 11 10 9 10 10 9 9 9 9
12 10 10 10 10 11 9 9 15 17 16 16 15 12 9 10 14 15 15 17 17 16 15 16 15 17 17 16 15 12 10 11 12 14 12 10 9 9 9 10 10 9 9 8
15 13 11 12 12 9 9 7 11 13 14 14 12 9 9 8 11 12 14 16 17 17 16 16 16 16 16 17 16 14 13 12 13 13 12 10 9 8 9 10 9 9 8 8
17 15 16 13 12 12 8 7 8 11 12 12 11 11 10 7 10 10 11 18 18 18 18 19 17 17 18 20 19 16 14 12 14 14 13 11 9 8 9 9 9 8 8 7
18 17 20 16 14 13 10 8 8 11 10 11 11 11 11 10 9 9 8 12 16 18 19 20 20 19 21 22 22 20 17 14 15 15 13 13 11 9 9 9 9 9 8 6
15 18 17 15 15 14 10 9 10 8 10 12 11 11 11 11 9 5 8 6 10 13 15 17 19 19 21 22 23 23 21 19 16 17 15 14 12 10 9 10 9 9 7 6
16 16 15 16 13 12 11 9 8 8 9 10 10 11 12 11 9 7 8 7 9 11 14 15 16 19 21 24 24 27 24 22 20 18 17 16 14 11 10 10 9 8 7 7
17 16 17 16 14 14 13 11 8 8 8 9 9 10 10 11 10 9 8 9 10 12 14 16 17 19 21 23 23 25 30 27 26 21 20 17 15 13 11 9 9 9 9 9
17 18 17 16 15 13 14 14 10 9 8 7 8 8 10 10 11 11 10 9 10 11 13 15 16 17 20 24 26 31 36 30 27 25 23 21 17 15 12 10 10 10 10 11
19 18 18 17 16 14 13 13 12 10 10 10 10 9 9 11 12 12 12 11 11 11 11 13 17 22 27 29 27 21 30 29 29 25 26 22 19 15 14 12 10 10 11 11
Wind_Direction
213 213 211 208 199 180 178 202 207 220 213 211 217 205 186 183 185 193 196 198 200 204 203 204 205 208 212 213 212 213 214 212 211 213 215 216 216 214 213 210 206 207 197 214
214 221 217 209 202 201 196 205 233 223 195 214 219 232 218 209 213 208 204 210 209 209 212 213 212 214 214 216 217 217 216 212 210 210 211 207 207 210 214 204 202 201 199 193
219 222 218 214 210 213 220 225 222 233 191 215 245 248 220 229 234 232 227 216 213 214 212 212 213 215 218 220 218 217 215 211 206 204 200 199 199 200 196 200 202 200 197 200
225 224 219 216 218 217 235 223 219 210 217 244 249 259 238 220 230 236 229 223 218 215 216 214 212 215 217 220 216 214 213 209 205 202 201 198 199 201 205 207 200 197 196 199
222 220 221 220 222 218 228 226 219 218 228 252 237 256 204 190 242 242 232 228 223 218 215 215 215 214 216 217 212 209 206 205 204 205 205 202 203 205 201 196 200 210 217 231
226 227 224 226 220 219 214 216 223 232 241 255 242 234 237 200 255 292 247 235 224 221 216 216 215 215 213 205 199 197 196 199 202 204 205 206 208 210 209 207 212 219 219 224
224 224 223 220 218 218 219 217 234 235 229 238 221 226 238 259 273 299 277 248 224 216 212 213 212 211 210 199 195 197 200 200 201 202 204 207 210 214 216 221 224 220 222 216
220 224 220 218 222 220 216 227 229 241 235 241 231 238 232 254 286 297 298 274 226 212 211 212 210 209 210 202 201 202 202 203 202 203 204 208 213 216 217 219 222 217 218 216
214 231 227 223 219 216 218 223 230 232 240 247 249 255 255 254 269 304 315 268 215 207 206 209 208 208 198 198 202 203 203 202 203 204 207 212 217 222 222 223 223 223 225 220
218 236 228 216 213 220 223 211 223 233 238 245 245 254 251 271 282 289 299 262 212 204 203 206 207 206 205 204 199 202 207 208 210 211 214 220 225 227 230 224 223 226 228 229
221 235 223 213 216 211 215 221 228 229 241 248 259 258 260 262 265 273 273 249 213 205 205 207 209 209 208 205 205 208 210 215 215 214 216 220 229 232 233 229 224 226 226 228
215 226 228 218 216 220 222 221 221 231 234 247 259 259 268 261 259 261 278 238 215 212 204 204 206 208 204 207 211 215 222 222 227 224 220 221 229 233 229 227 221 222 225 228
202 226 220 215 217 218 222 221 225 231 239 244 254 264 270 256 253 256 268 225 214 206 202 203 205 203 204 209 216 219 217 231 222 220 211 212 219 227 231 228 221 219 222 226
207 217 218 217 215 213 217 224 226 231 239 251 251 264 267 262 251 253 248 224 214 206 205 203 205 210 212 213 220 225 228 241 235 198 203 207 215 222 223 223 216 216 219 222
216 224 212 213 214 209 218 218 223 232 241 247 256 253 268 256 247 247 238 215 209 206 201 206 205 211 212 214 219 227 229 227 213 194 201 206 212 220 219 217 209 208 213 218
214 223 213 214 215 222 232 237 233 237 238 245 258 271 279 262 234 234 231 211 206 206 212 209 205 205 209 209 213 222 218 229 201 201 204 209 219 220 215 208 203 203 206 209
219 210 213 212 229 228 246 244 231 230 231 239 250 277 281 266 226 233 227 209 206 213 213 206 208 208 209 205 206 206 202 199 194 196 203 212 220 215 214 206 201 203 210 215
215 215 224 220 226 240 270 258 235 231 237 236 256 272 277 253 239 237 219 210 212 215 209 209 210 211 212 208 203 197 196 188 190 190 195 203 207 211 208 203 203 209 214 219
226 221 221 227 230 260 258 242 226 231 234 233 245 268 272 261 241 229 221 221 223 222 217 213 214 213 210 206 201 196 195 199 197 196 196 199 201 204 202 201 204 207 208 210
223 229 227 224 231 236 250 236 240 234 237 225 250 262 268 252 235 229 238 231 230 226 224 218 216 214 214 208 205 204 203 204 199 200 201 201 201 201 198 196 195 196 197 199
219 222 224 225 234 242 243 249 238 234 233 249 255 258 256 244 247 254 249 238 230 227 224 219 220 222 217 211 210 214 212 209 205 203 202 203 203 199 196 193 189 189 194 205
217 215 222 225 228 233 238 231 240 256 248 247 256 253 253 244 240 245 231 237 213 209 210 218 220 222 217 218 217 217 215 211 208 205 204 204 204 200 194 189 188 194 202 218
221 225 222 226 229 228 229 230 245 251 256 248 253 252 246 241 233 240 229 219 208 212 214 222 222 221 225 224 226 222 217 212 210 209 205 201 201 201 197 194 199 208 222 240
224 224 228 226 230 228 221 226 241 253 261 251 249 248 247 241 239 228 227 221 226 229 231 232 232 233 231 229 228 227 222 219 214 211 206 201 199 199 202 207 219 231 242 253
227 223 225 226 227 223 217 227 245 256 253 252 251 251 247 245 237 229 229 230 231 239 240 240 238 235 233 232 246 268 215 209 210 205 204 203 203 204 209 223 239 246 254 262
222 225 226 223 218 221 226 234 241 254 255 254 253 257 255 245 244 234 228 232 241 243 243 246 250 254 251 247 244 226 207 207 203 201 200 206 206 211 221 230 240 252 258 266